This is the latest recevied weather packets stored in our database for station/object KD5UMO-1. If no packets are shown the sender has not sent any weather packets the latest 10 day(s).
| Time | Temp. | Humidity | Pressure | Rain* | Wind** | Luminosity | Snow |
|---|---|---|---|---|---|---|---|
| 1777772076 | 20.56° C | 47% | 1019.2 hPa | 0 mm | - | 0 W/m² | - |
| 1777771773 | 21.11° C | 45% | 1019.1 hPa | 0 mm | - | 0 W/m² | - |
| 1777771471 | 21.11° C | 44% | 1019.1 hPa | 0 mm | - | 0 W/m² | - |
| 1777771167 | 21.67° C | 44% | 1019.1 hPa | 0 mm | - | 1 W/m² | - |
| 1777770864 | 21.67° C | 43% | 1019 hPa | 0 mm | - | 2 W/m² | - |
| 1777770561 | 21.67° C | 43% | 1019.1 hPa | 0 mm | - | 4 W/m² | - |
| 1777770258 | 22.22° C | 43% | 1018.9 hPa | 0 mm | - | 7 W/m² | - |
| 1777769955 | 22.22° C | 42% | 1018.9 hPa | 0 mm | - | 11 W/m² | - |
| 1777769652 | 22.78° C | 41% | 1019 hPa | 0 mm | - | 15 W/m² | - |
| 1777769348 | 22.78° C | 41% | 1018.8 hPa | 0 mm | - | 19 W/m² | - |
| 1777769046 | 22.78° C | 40% | 1019 hPa | 0 mm | - | 24 W/m² | - |
| 1777768743 | 23.33° C | 39% | 1018.7 hPa | 0 mm | - | 28 W/m² | - |
| 1777768440 | 23.89° C | 38% | 1018.7 hPa | 0 mm | - | 35 W/m² | - |
| 1777768137 | 23.89° C | 39% | 1018.9 hPa | 0 mm | - | 39 W/m² | - |
| 1777767834 | 23.89° C | 38% | 1018.7 hPa | 0 mm | - | 45 W/m² | - |
| 1777767530 | 23.89° C | 37% | 1018.8 hPa | 0 mm | - | 53 W/m² | - |
| 1777767226 | 25° C | 36% | 1018.7 hPa | 0 mm | - | 61 W/m² | - |
| 1777766924 | 24.44° C | 37% | 1018.6 hPa | 0 mm | - | 66 W/m² | - |
| 1777766622 | 24.44° C | 36% | 1018.7 hPa | 0 mm | - | 76 W/m² | - |
| 1777766318 | 25° C | 35% | 1018.7 hPa | 0 mm | - | 86 W/m² | - |
| 1777766016 | 25.56° C | 35% | 1018.7 hPa | 0 mm | - | 94 W/m² | - |
| 1777765712 | 25.56° C | 33% | 1018.5 hPa | 0 mm | - | 106 W/m² | - |
| 1777765409 | 25.56° C | 33% | 1018.8 hPa | 0 mm | - | 122 W/m² | - |
| 1777765106 | 25.56° C | 34% | 1018.7 hPa | 0 mm | - | 138 W/m² | - |
| 1777764802 | 25.56° C | 33% | 1018.8 hPa | 0 mm | - | 153 W/m² | - |
* Rain latest hour (hover to see other rain measurements)
** Current wind speed in m/s (hover to see current wind gust speed)